Volver al catálogo

STARLINK-4183

ActivoComunicacionesVLEO
NORAD 53014·PAYLOAD·🇺🇸 United States

Lanzado Jul 7, 2022 desde Cape Canaveral Space Force Station

Loading…

Próximos Pases (próximas 24 horas)

TLE

ActualizadoSource: CelesTrak SupGP

Época: Sep 14, 2026, 21:53 UTC

1 53014C 22076AE  26257.91229167 -.00002703  00000+0 -77351-4 0  2576
2 53014  53.1588 304.6277 0001247  85.9301 186.9766 15.35393560    18

Sigue STARLINK-4183 en tiempo real con AllMySat

Download on the App Store